DLH74L EDLW-EDDG

Flight info

Callsign DLH74L
Flight time 0h 16m
Altitude 11000
Route DOMEG2U DOMEG DOMEG2J
Aircraft A319/M-SDE3FGHIRWY/LB1

Departure

Time 2026-04-15 16:02
Airport Dortmund Airport (EDLW)

Arrival

Time 2026-04-15 16:18
Airport Münster Osnabrück Airport (EDDG)
Time Latitude Longitude Altitude Speed Heading
2026-04-15 15:41 51.51389 7.60942 439 ft 0 kts 144°
2026-04-15 15:50 51.51398 7.60932 425 ft 2 kts 144°
2026-04-15 15:50 51.51411 7.60917 423 ft 2 kts 145°
2026-04-15 15:50 51.51423 7.60898 433 ft 2 kts 118°
2026-04-15 15:51 51.51429 7.60873 423 ft 2 kts 102°
2026-04-15 15:51 51.51431 7.60847 426 ft 2 kts 88°
2026-04-15 15:51 51.51430 7.60838 425 ft 2 kts 81°
2026-04-15 15:51 51.51430 7.60834 426 ft 2 kts 77°
2026-04-15 15:52 51.51428 7.60824 426 ft 0 kts 67°
2026-04-15 15:52 51.51429 7.60827 426 ft 0 kts 67°
2026-04-15 15:54 51.51431 7.60834 439 ft 4 kts 63°
2026-04-15 15:54 51.51465 7.60929 426 ft 15 kts 59°
2026-04-15 15:54 51.51557 7.61058 433 ft 22 kts 14°
2026-04-15 15:54 51.51649 7.61256 425 ft 25 kts 59°
2026-04-15 15:55 51.51747 7.61531 421 ft 32 kts 60°
2026-04-15 15:55 51.51870 7.61873 410 ft 38 kts 61°
2026-04-15 15:55 51.51956 7.62116 411 ft 20 kts 60°
2026-04-15 15:55 51.52024 7.62311 411 ft 0 kts 60°
2026-04-15 15:56 51.52033 7.62334 412 ft 6 kts 60°
2026-04-15 15:56 51.52052 7.62389 410 ft 12 kts 61°
2026-04-15 15:57 51.52081 7.62473 408 ft 2 kts 61°
2026-04-15 15:57 51.52083 7.62480 409 ft 0 kts 61°
2026-04-15 15:59 51.52095 7.62513 410 ft 14 kts 61°
2026-04-15 16:00 51.52172 7.62728 403 ft 26 kts 52°
2026-04-15 16:00 51.52201 7.62770 404 ft 8 kts 27°
2026-04-15 16:00 51.52283 7.62744 403 ft 10 kts 330°
2026-04-15 16:00 51.52326 7.62633 407 ft 14 kts 258°
2026-04-15 16:01 51.52302 7.62552 408 ft 0 kts 239°
2026-04-15 16:01 51.52284 7.62501 405 ft 25 kts 240°
2026-04-15 16:01 51.52158 7.62149 411 ft 98 kts 240°
2026-04-15 16:02 51.51669 7.60761 740 ft 161 kts 240°
2026-04-15 16:02 51.51154 7.59157 2015 ft 163 kts 240°
2026-04-15 16:02 51.50584 7.57466 3249 ft 182 kts 238°
2026-04-15 16:02 51.49932 7.55641 4232 ft 197 kts 238°
2026-04-15 16:03 51.49156 7.53515 4740 ft 243 kts 238°
2026-04-15 16:03 51.48276 7.51095 4946 ft 259 kts 238°
2026-04-15 16:03 51.47370 7.48547 4999 ft 261 kts 243°
2026-04-15 16:03 51.47001 7.45720 5146 ft 269 kts 272°
2026-04-15 16:04 51.47618 7.42858 5983 ft 275 kts 304°
2026-04-15 16:04 51.49038 7.40930 7565 ft 274 kts 333°
2026-04-15 16:04 51.50912 7.40045 9149 ft 283 kts 345°
2026-04-15 16:04 51.52849 7.39273 10072 ft 291 kts 348°
2026-04-15 16:05 51.54988 7.39076 10548 ft 329 kts
2026-04-15 16:05 51.57264 7.40015 10802 ft 346 kts 25°
2026-04-15 16:05 51.59248 7.42242 10955 ft 350 kts 40°
2026-04-15 16:05 51.61068 7.44796 10999 ft 351 kts 41°
2026-04-15 16:06 51.62892 7.47393 10994 ft 351 kts 41°
2026-04-15 16:06 51.64726 7.49993 10985 ft 350 kts 40°
2026-04-15 16:06 51.66559 7.52576 10992 ft 350 kts 40°
2026-04-15 16:06 51.68407 7.55167 10991 ft 350 kts 40°
2026-04-15 16:07 51.70255 7.57716 10990 ft 349 kts 37°
2026-04-15 16:07 51.72290 7.59852 10991 ft 349 kts 27°
2026-04-15 16:07 51.76625 7.63363 10990 ft 348 kts 25°
2026-04-15 16:08 51.78788 7.65136 10990 ft 348 kts 26°
2026-04-15 16:08 51.80927 7.66897 10993 ft 348 kts 26°
2026-04-15 16:08 51.83081 7.68671 10993 ft 348 kts 26°
2026-04-15 16:08 51.85214 7.70532 10991 ft 348 kts 31°
2026-04-15 16:09 51.87051 7.72707 10992 ft 349 kts 39°
2026-04-15 16:09 51.88878 7.75314 10992 ft 350 kts 40°
2026-04-15 16:09 51.90709 7.77907 10992 ft 349 kts 40°
2026-04-15 16:09 51.92543 7.80491 10990 ft 349 kts 40°
2026-04-15 16:10 51.94377 7.83081 10986 ft 348 kts 40°
2026-04-15 16:10 51.96189 7.85651 10757 ft 344 kts 40°
2026-04-15 16:10 51.97983 7.88102 10320 ft 338 kts 33°
2026-04-15 16:10 52.00072 7.89542 10164 ft 319 kts
2026-04-15 16:11 52.02198 7.89507 9947 ft 295 kts 344°
2026-04-15 16:11 52.04091 7.88388 9338 ft 286 kts 334°
2026-04-15 16:11 52.05890 7.87047 8638 ft 283 kts 333°
2026-04-15 16:11 52.07669 7.85707 7968 ft 281 kts 333°
2026-04-15 16:12 52.09445 7.84421 7318 ft 278 kts 334°
2026-04-15 16:12 52.11200 7.83196 6691 ft 276 kts 335°
2026-04-15 16:12 52.12998 7.82133 6005 ft 276 kts 349°
2026-04-15 16:12 52.14894 7.82293 5346 ft 274 kts 17°
2026-04-15 16:13 52.16445 7.83728 4738 ft 270 kts 44°
2026-04-15 16:13 52.17433 7.86248 4309 ft 266 kts 72°
2026-04-15 16:13 52.18238 7.88954 3767 ft 258 kts 46°
2026-04-15 16:13 52.19182 7.89869 3578 ft 226 kts 12°
2026-04-15 16:14 52.20416 7.89568 3080 ft 202 kts 323°
2026-04-15 16:14 52.20993 7.88267 2422 ft 196 kts 280°
2026-04-15 16:14 52.20897 7.86082 1487 ft 193 kts 252°
2026-04-15 16:14 52.20565 7.84925 1317 ft 173 kts 231°
2026-04-15 16:15 52.19484 7.83606 1662 ft 219 kts 202°
2026-04-15 16:15 52.17997 7.83284 2819 ft 221 kts 171°
2026-04-15 16:15 52.16489 7.84048 3729 ft 221 kts 176°
2026-04-15 16:15 52.15292 7.83150 3634 ft 185 kts 235°
2026-04-15 16:16 52.14952 7.81134 2818 ft 196 kts 269°
2026-04-15 16:16 52.15050 7.78839 1955 ft 203 kts 271°
2026-04-15 16:16 52.15050 7.78821 1950 ft 203 kts 271°
2026-04-15 16:16 52.15054 7.78035 1722 ft 201 kts 268°
2026-04-15 16:17 52.14862 7.75805 1062 ft 196 kts 255°
2026-04-15 16:17 52.14529 7.73778 733 ft 172 kts 254°
2026-04-15 16:17 52.14223 7.72028 489 ft 151 kts 251°
2026-04-15 16:17 52.13897 7.70499 277 ft 134 kts 249°
2026-04-15 16:18 52.13607 7.69158 170 ft 103 kts 251°
2026-04-15 16:18 52.13497 7.68638 167 ft 30 kts 251°
2026-04-15 16:18 52.13412 7.68279 168 ft 23 kts 245°
2026-04-15 16:18 52.13350 7.67964 166 ft 41 kts 252°
2026-04-15 16:19 52.13292 7.67678 165 ft 45 kts 252°
2026-04-15 16:19 52.13185 7.67184 164 ft 47 kts 250°
2026-04-15 16:19 52.13107 7.67059 165 ft 13 kts 176°
2026-04-15 16:19 52.13030 7.67215 165 ft 27 kts 90°
2026-04-15 16:20 52.13046 7.67334 166 ft 0 kts 72°
2026-04-15 16:21 52.13050 7.67352 166 ft 10 kts 72°
2026-04-15 16:22 52.13098 7.67582 166 ft 27 kts 71°
2026-04-15 16:22 52.13167 7.67910 166 ft 34 kts 71°
2026-04-15 16:22 52.13248 7.68294 167 ft 28 kts 71°
2026-04-15 16:22 52.13263 7.68365 167 ft 20 kts 69°
2026-04-15 16:23 52.13302 7.68538 167 ft 25 kts 70°
2026-04-15 16:23 52.13341 7.68820 167 ft 13 kts 127°
2026-04-15 16:23 52.13309 7.68994 167 ft 21 kts 72°
2026-04-15 16:23 52.13303 7.69182 168 ft 9 kts 171°
2026-04-15 16:24 52.13227 7.69244 168 ft 17 kts 152°
2026-04-15 16:24 52.13152 7.69276 168 ft 2 kts 177°
2026-04-15 16:24 52.13135 7.69278 167 ft 0 kts 175°